Regional Weather Roundup
Issued by NWS San Diego, CA

Current Version | Previous Version | Text Only | Print | Product List | Glossary On
Versions: 1 2 3 4 5 6 7 8 9 10 11 12 13 14 15 16 17 18 19 20 21 22 23 24 25 26 27
000
ASUS46 KSGX 080810
RWRSGX

SAN DIEGO HOURLY WEATHER ROUNDUP
NATIONAL WEATHER SERVICE SAN DIEGO CA
100 AM PDT SAT MAY 08 2021

NOTE: "FAIR" INDICATES FEW OR NO CLOUDS BELOW 12,000 FEET WITH NO
SIGNIFICANT WEATHER AND/OR OBSTRUCTIONS TO VISIBILITY.

CAZ042-043-060-061-PZZ750-775-080900-

GREATER SAN DIEGO AREA

CITY           SKY/WX    TMP DP  RH WIND       PRES   REMARKS
SAN DIEGO AP   CLOUDY    63  51  65 W5        29.98S
CHULA VISTA      N/A     60  53  77 S5        29.80F
BROWN FIELD    CLOUDY    59  48  67 SW6       29.96S
MIRAMAR MCAS   CLOUDY    59  51  75 S6        29.96R
MONTGOMERY FLD CLOUDY    59  50  72 S5        29.96S
GILLESPIE FLD  CLOUDY    59  52  77 SW7       29.96R
LEMON GROVE      N/A     58  52  81 CALM      29.94R

$$

NORTH SAN DIEGO COUNTY

CITY           SKY/WX    TMP DP  RH WIND       PRES   REMARKS
CAMP PENDLETON CLOUDY    63  51  65 CALM      29.95F
OCEANSIDE AP   CLOUDY    60  51  72 E7        29.95S
OCEANSIDE HBR    N/A     60  54  79 E3        30.02S
VISTA            N/A     59  53  81 S1        29.93S
CARLSBAD       CLOUDY    60  50  69 SE6       29.95S
ENCINITAS        N/A     58  53  82 CALM        N/A
LA JOLLA SCRIP   N/A     59  53  80 CALM      29.96R
FALLBROOK      CLOUDY    57  52  82 CALM      29.96F
ESCONDIDO        N/A     58  52  79 CALM      29.95S
SAN MARCOS       N/A     57  53  84 CALM      29.98F
RANCHO BERNARD   N/A     58  52  80 S1        29.95R

$$

EAST SAN DIEGO COUNTY

CITY           SKY/WX    TMP DP  RH WIND       PRES   REMARKS
RAMONA         CLOUDY    56  51  84 SW5       29.96R
LA MESA          N/A     57  51  79 CALM      29.90F
DESCANSO N       N/A     44  35  70 E8        29.92F

$$

ORANGE COUNTY AND THE LOS ANGELES BASIN

CITY           SKY/WX    TMP DP  RH WIND       PRES   REMARKS
JOHN WAYNE AP  CLOUDY    63  51  65 S8        29.93F
LAGUNA BEACH     N/A     62  55  77 CALM      29.93F
LAKE FOREST FR   N/A     57  50  77 SE3       29.82F
HUNTINGTON BCH   N/A     61  55  80 CALM      29.93F
LOS ALAMITOS   CLOUDY    61  55  82 CALM      29.94F
FULLERTON      CLOUDY    63  54  72 S5        29.93F
LONG BEACH     CLOUDY    61  52  72 S6        29.94F
L.A. AP        CLOUDY    60  52  74 CALM      29.94F
L.A. DOWNTOWN  CLOUDY    61  53  75 CALM      29.93F

$$

THE INLAND EMPIRE

CITY           SKY/WX    TMP DP  RH WIND       PRES   REMARKS
CORONA         CLEAR     55  51  86 CALM      29.95S
UPLAND AP        N/A     57  54  88 VRB5G12   29.94S
CHINO          CLEAR     56  51  84 W5        29.95F
ONTARIO        CLOUDY    59  52  77 W6        29.94S
SAN BERNARDINO MOCLDY    59  52  77 W5        29.95S
RIVERSIDE AP   MOCLDY    57  52  83 W5        29.94F
MORENO VALLEY    N/A     56  53  91 CALM      29.87S
MARCH ARB      MOCLDY    55  52  88 CALM      29.94F
HORSETHIEF CYN   N/A     54  49  83 SW3       29.92S
PERRIS           N/A     55  51  88 NW2       29.95S
LAKE ELSINORE    N/A     56  51  85 CALM      29.86F
HEMET AP       FAIR      52  52 100 SW8       29.96R
FRENCH VALLEY  CLOUDY    55  52  88 SW3       29.96S
TEMECULA         N/A     57  55  91 S3        29.95S

$$

SAN BERNARDINO AND RIVERSIDE COUNTY MOUNTAINS

CITY           SKY/WX    TMP DP  RH WIND       PRES   REMARKS
BIG BEAR AP    CLEAR     39  21  48 CALM      30.08S
BIG BEAR LAKE    N/A     39  21  48 S3        29.88S
LK ARROWHEAD N   N/A     46  32  57 CALM      29.83R
WRIGHTWOOD       N/A     47   8  20 CALM      29.74R
ANGELUS OAKS     N/A     49  26  40 CALM      29.76F
IDYLLWILD        N/A     42  23  46 W1        29.77F

$$

SOUTHERN DESERT INCLUDING THE COACHELLA VALLEY

CITY           SKY/WX    TMP DP  RH WIND       PRES   REMARKS
PALM SPRINGS   CLEAR     73  43  33 CALM      29.75F
THOUSAND PALMS   N/A     70  49  47 NW17      29.69F
PALM DESERT      N/A     70  49  46 NE3       29.77R
INDIO            N/A     75  46  35 NW6       29.73S
THERMAL        CLEAR     76  43  30 NW23G29   29.71F
BORREGO AP     FAIR      72  36  26 CALM      29.77S
OCOTILLO WELLS   N/A     76  34  21 NW9       29.68F
CANEBRAKE        N/A     67  29  23 CALM      29.70S
BLYTHE         CLEAR     77  40  26 S17       29.73F
IMPERIAL AP    CLEAR     72  34  24 W10       29.74S
EL CENTRO NAS  CLEAR     76  32  20 W15       29.76F
YUMA AZ        CLEAR     72  37  28 S7        29.76S

$$

UPPER DESERT

CITY           SKY/WX    TMP DP  RH WIND       PRES   REMARKS
HESPERIA         N/A     57  42  57 W3        29.68S
APPLE VALLEY     N/A     52  41  66 N1        29.88S
PALMDALE       CLEAR     63  24  22 W23G32    29.93F
LANCASTER      CLEAR     63  25  23 W24G32    29.91R
EDWARDS AFB    CLEAR     65  28  24 W18       29.86S
GRAY BUTTE AP  FAIR      61  30  30 W14G23    29.91R
DAGGETT        CLEAR     69  26  20 W25G32    29.85R
29 PALMS N     CLEAR     70  25  18 NW10      29.90R
29 PALMS JTNP    N/A     68  31  25 CALM      29.69R
NEEDLES        CLEAR     79  32  18 W6        29.74R

$$

REGIONAL REPORTS

CITY           SKY/WX    TMP DP  RH WIND       PRES   REMARKS
SANTA BARBARA  CLEAR     53  49  86 NE3       29.91F
SANDBERG       CLEAR     53  31  42 W18G38    29.99R
LAS VEGAS NV   PTCLDY    75  17  11 S9        29.77F
PHOENIX AZ     PTCLDY    81  26  13 W12       29.76F
TIJUANA        CLOUDY    57  48  72 CALM      29.99F
ENSENADA NW      N/A     59  32  36 W1        29.94F

$$

OFFSHORE ISLANDS

CITY           SKY/WX    TMP DP  RH WIND       PRES   REMARKS
CATALINA ARPT  MOCLDY    52  50  93 SE6       29.94F
SAN CLEMENTE I PTCLDY    53  32  44 CALM      29.96F
SAN NICOLAS IS CLEAR     51  48  89 NW18      29.93F

$$

MARINE AND OFFSHORE BUOY REPORTS

STATION/POSITION SKY/WX   TEMP    WIND        PRES    VSBY  SWELL
                          AIR SEA DIR/SP/G                  HT/PER/DIR
                          (F)     (DEG/KT/KT) (MB)    (MI)  (FT/S/D)

$$




USA.gov is the U.S. government's official web portal to all federal, state and local government web resources and services.